Track STARLINK-2334 now! 10-day predictions STARLINK-2334 is classified as:
1 47792U 21018F 21110.83335648 .00011356 00000-0 85074-4 0 9990 2 47792 53.0495 346.8137 0001283 82.9971 197.7185 15.73236502 7288